QPF
0.01 0.01 0.01 0.01 0.01 0.02 0.01 0.01 0.01 0.01 0.01 0.01 0.01 0.01 0.00 0.01 0.01 0.02 0.02 0.04 0.05 0.10 0.15 0.17 0.14 0.10 0.09 0.07 0.08 0.08 0.08 0.11 0.12 0.10 0.08 0.08 0.07 0.07 0.07 0.07 0.07 0.08 0.11 0.11 0.08 0.09 0.09 0.09 0.14
0.00 0.01 0.01 0.01 0.01 0.01 0.01 0.01 0.01 0.02 0.01 0.01 0.00 0.00 0.00 0.01 0.01 0.02 0.02 0.03 0.04 0.07 0.11 0.14 0.15 0.13 0.11 0.07 0.08 0.07 0.06 0.07 0.11 0.15 0.13 0.09 0.09 0.09 0.08 0.08 0.09 0.08 0.07 0.11 0.11 0.11 0.11 0.10 0.13
0.00 0.01 0.01 0.01 0.02 0.01 0.01 0.01 0.01 0.01 0.01 0.00 0.00 0.00 0.00 0.02 0.02 0.02 0.01 0.02 0.04 0.06 0.08 0.10 0.10 0.11 0.10 0.09 0.09 0.07 0.05 0.07 0.09 0.12 0.17 0.18 0.13 0.11 0.07 0.07 0.09 0.10 0.08 0.10 0.13 0.13 0.09 0.10 0.13
0.00 0.00 0.01 0.01 0.01 0.01 0.01 0.01 0.01 0.01 0.01 0.01 0.00 0.00 0.01 0.02 0.02 0.01 0.01 0.01 0.03 0.05 0.07 0.07 0.08 0.10 0.10 0.09 0.10 0.07 0.04 0.06 0.07 0.09 0.13 0.19 0.18 0.11 0.07 0.09 0.12 0.13 0.10 0.12 0.17 0.18 0.13 0.11 0.13
0.00 0.00 0.01 0.01 0.01 0.01 0.01 0.00 0.01 0.01 0.01 0.01 0.00 0.00 0.01 0.01 0.00 0.00 0.01 0.01 0.02 0.04 0.05 0.06 0.07 0.09 0.10 0.09 0.08 0.06 0.06 0.07 0.08 0.07 0.08 0.10 0.11 0.09 0.10 0.13 0.18 0.18 0.12 0.13 0.19 0.21 0.18 0.14 0.15
0.00 0.00 0.01 0.00 0.00 0.01 0.01 0.00 0.00 0.01 0.01 0.01 0.00 0.00 0.01 0.01 0.00 0.00 0.01 0.02 0.02 0.03 0.03 0.04 0.06 0.08 0.10 0.10 0.09 0.09 0.11 0.10 0.08 0.06 0.07 0.06 0.08 0.09 0.10 0.12 0.12 0.13 0.14 0.18 0.24 0.24 0.20 0.17 0.21
0.00 0.00 0.00 0.00 0.00 0.01 0.00 0.00 0.01 0.01 0.00 0.01 0.01 0.00 0.01 0.01 0.00 0.00 0.00 0.01 0.01 0.02 0.01 0.03 0.06 0.08 0.11 0.10 0.10 0.13 0.11 0.09 0.08 0.06 0.06 0.05 0.04 0.05 0.09 0.07 0.09 0.10 0.10 0.14 0.19 0.18 0.17 0.20 0.23
0.00 0.00 0.00 0.00 0.00 0.00 0.00 0.00 0.00 0.00 0.00 0.00 0.00 0.01 0.02 0.01 0.00 0.00 0.00 0.01 0.02 0.02 0.03 0.04 0.07 0.09 0.08 0.09 0.07 0.08 0.09 0.08 0.08 0.07 0.07 0.05 0.04 0.04 0.07 0.08 0.07 0.08 0.08 0.12 0.20 0.24 0.20 0.18 0.22
0.00 0.00 0.00 0.00 0.00 0.00 0.00 0.00 0.00 0.00 0.00 0.00 0.01 0.02 0.02 0.01 0.00 0.00 0.01 0.02 0.02 0.03 0.06 0.06 0.04 0.04 0.10 0.13 0.07 0.10 0.11 0.10 0.09 0.08 0.08 0.06 0.05 0.05 0.05 0.05 0.07 0.06 0.07 0.10 0.22 0.27 0.19 0.15 0.20
0.00 0.00 0.00 0.00 0.00 0.00 0.00 0.00 0.00 0.00 0.00 0.00 0.01 0.01 0.01 0.01 0.01 0.01 0.01 0.02 0.02 0.04 0.06 0.06 0.04 0.07 0.09 0.08 0.06 0.09 0.10 0.09 0.07 0.08 0.08 0.07 0.07 0.06 0.04 0.03 0.05 0.06 0.08 0.09 0.15 0.17 0.14 0.12 0.13
0.00 0.00 0.00 0.00 0.00 0.00 0.00 0.00 0.00 0.00 0.01 0.01 0.01 0.01 0.01 0.01 0.01 0.01 0.01 0.02 0.03 0.04 0.06 0.08 0.09 0.11 0.11 0.09 0.06 0.06 0.06 0.06 0.06 0.06 0.07 0.08 0.09 0.07 0.06 0.05 0.05 0.08 0.08 0.11 0.13 0.16 0.13 0.09 0.09
0.00 0.00 0.00 0.00 0.00 0.00 0.00 0.00 0.00 0.00 0.01 0.01 0.01 0.01 0.01 0.02 0.01 0.01 0.01 0.02 0.03 0.03 0.05 0.09 0.12 0.13 0.12 0.09 0.07 0.04 0.04 0.05 0.06 0.06 0.07 0.08 0.10 0.10 0.07 0.07 0.06 0.06 0.07 0.09 0.11 0.15 0.11 0.09 0.08
0.00 0.00 0.00 0.00 0.00 0.00 0.00 0.00 0.00 0.00 0.00 0.00 0.01 0.01 0.02 0.02 0.02 0.01 0.02 0.02 0.01 0.02 0.04 0.07 0.09 0.08 0.07 0.07 0.06 0.03 0.05 0.07 0.07 0.06 0.06 0.06 0.07 0.08 0.07 0.07 0.06 0.04 0.05 0.07 0.08 0.09 0.09 0.10 0.11
0.00 0.00 0.00 0.00 0.00 0.00 0.00 0.00 0.00 0.01 0.00 0.00 0.01 0.01 0.02 0.02 0.02 0.01 0.01 0.01 0.01 0.01 0.02 0.04 0.04 0.03 0.03 0.05 0.05 0.05 0.10 0.13 0.10 0.06 0.05 0.05 0.06 0.06 0.05 0.05 0.06 0.06 0.06 0.08 0.09 0.08 0.07 0.07 0.10
0.00 0.00 0.00 0.00 0.00 0.00 0.00 0.01 0.01 0.01 0.00 0.01 0.00 0.00 0.01 0.02 0.02 0.01 0.00 0.00 0.01 0.01 0.01 0.04 0.03 0.02 0.03 0.03 0.02 0.04 0.07 0.11 0.10 0.06 0.05 0.05 0.05 0.06 0.06 0.05 0.06 0.05 0.05 0.06 0.09 0.09 0.10 0.09 0.09
0.00 0.00 0.00 0.00 0.00 0.00 0.00 0.01 0.01 0.00 0.00 0.01 0.00 0.00 0.00 0.01 0.01 0.01 0.00 0.00 0.01 0.01 0.02 0.04 0.03 0.02 0.02 0.03 0.03 0.04 0.05 0.07 0.07 0.06 0.07 0.07 0.07 0.05 0.05 0.05 0.05 0.04 0.03 0.04 0.07 0.10 0.12 0.12 0.08
0.00 0.00 0.00 0.00 0.00 0.00 0.00 0.00 0.00 0.00 0.00 0.00 0.00 0.00 0.00 0.00 0.00 0.01 0.00 0.00 0.01 0.01 0.01 0.04 0.04 0.03 0.04 0.04 0.03 0.04 0.05 0.06 0.07 0.09 0.11 0.12 0.10 0.07 0.05 0.05 0.06 0.04 0.02 0.03 0.05 0.06 0.10 0.15 0.12
0.00 0.00 0.00 0.00 0.00 0.00 0.00 0.00 0.00 0.00 0.00 0.00 0.00 0.00 0.00 0.00 0.00 0.00 0.01 0.00 0.00 0.00 0.01 0.04 0.06 0.04 0.05 0.04 0.04 0.04 0.05 0.05 0.06 0.09 0.13 0.11 0.07 0.04 0.04 0.04 0.06 0.05 0.04 0.03 0.04 0.04 0.07 0.12 0.12
0.00 0.00 0.00 0.00 0.00 0.00 0.00 0.00 0.00 0.00 0.00 0.00 0.00 0.00 0.00 0.00 0.00 0.00 0.00 0.00 0.00 0.00 0.01 0.03 0.05 0.05 0.05 0.04 0.03 0.04 0.04 0.05 0.05 0.04 0.05 0.05 0.03 0.03 0.03 0.04 0.05 0.05 0.06 0.06 0.07 0.07 0.08 0.10 0.10
0.00 0.00 0.00 0.00 0.00 0.00 0.00 0.00 0.00 0.00 0.00 0.00 0.00 0.00 0.00 0.00 0.00 0.00 0.00 0.00 0.00 0.00 0.01 0.02 0.04 0.06 0.05 0.04 0.03 0.03 0.03 0.03 0.04 0.03 0.04 0.04 0.02 0.02 0.03 0.05 0.06 0.09 0.13 0.15 0.14 0.11 0.10 0.11 0.12
0.00 0.00 0.00 0.00 0.00 0.00 0.00 0.00 0.00 0.00 0.00 0.00 0.00 0.00 0.00 0.00 0.00 0.00 0.00 0.00 0.00 0.00 0.01 0.02 0.04 0.06 0.07 0.06 0.04 0.03 0.03 0.03 0.05 0.04 0.03 0.03 0.03 0.03 0.04 0.06 0.09 0.14 0.14 0.12 0.12 0.12 0.12 0.13 0.13
0.00 0.00 0.00 0.00 0.00 0.00 0.00 0.00 0.00 0.00 0.00 0.00 0.00 0.00 0.00 0.00 0.00 0.00 0.00 0.00 0.00 0.00 0.01 0.02 0.04 0.04 0.08 0.09 0.05 0.03 0.03 0.04 0.05 0.04 0.05 0.06 0.06 0.04 0.04 0.10 0.14 0.14 0.10 0.07 0.08 0.09 0.08 0.10 0.10
0.00 0.00 0.00 0.00 0.00 0.00 0.00 0.00 0.00 0.00 0.00 0.00 0.00 0.00 0.00 0.00 0.00 0.00 0.00 0.00 0.00 0.00 0.01 0.04 0.04 0.03 0.07 0.09 0.06 0.04 0.04 0.06 0.07 0.05 0.04 0.05 0.06 0.04 0.04 0.06 0.09 0.12 0.12 0.10 0.07 0.06 0.05 0.06 0.07
0.00 0.00 0.00 0.00 0.00 0.00 0.00 0.00 0.00 0.00 0.00 0.00 0.00 0.00 0.00 0.00 0.00 0.00 0.00 0.00 0.00 0.00 0.00 0.01 0.01 0.01 0.05 0.09 0.08 0.05 0.05 0.06 0.07 0.06 0.04 0.05 0.07 0.07 0.06 0.05 0.05 0.07 0.07 0.07 0.05 0.04 0.05 0.05 0.05
0.00 0.00 0.00 0.00 0.00 0.00 0.00 0.00 0.00 0.00 0.00 0.00 0.00 0.00 0.00 0.00 0.00 0.00 0.00 0.00 0.00 0.00 0.00 0.00 0.00 0.02 0.07 0.09 0.08 0.06 0.05 0.05 0.06 0.06 0.07 0.07 0.06 0.08 0.09 0.07 0.06 0.06 0.05 0.05 0.05 0.04 0.04 0.04 0.05
0.00 0.00 0.00 0.00 0.00 0.00 0.00 0.00 0.00 0.00 0.00 0.00 0.00 0.00 0.00 0.00 0.00 0.00 0.00 0.00 0.00 0.00 0.00 0.00 0.01 0.01 0.02 0.03 0.05 0.04 0.03 0.03 0.03 0.05 0.07 0.05 0.04 0.04 0.06 0.07 0.05 0.04 0.04 0.05 0.05 0.04 0.04 0.05 0.05
0.00 0.00 0.00 0.00 0.00 0.00 0.00 0.00 0.00 0.00 0.00 0.00 0.00 0.00 0.00 0.00 0.00 0.00 0.00 0.00 0.00 0.00 0.00 0.00 0.01 0.01 0.01 0.01 0.01 0.02 0.01 0.01 0.01 0.01 0.02 0.01 0.01 0.01 0.02 0.02 0.02 0.02 0.02 0.03 0.06 0.05 0.04 0.05 0.05
0.00 0.00 0.00 0.00 0.00 0.00 0.00 0.00 0.00 0.00 0.00 0.00 0.00 0.00 0.00 0.00 0.00 0.00 0.00 0.00 0.00 0.00 0.00 0.01 0.01 0.01 0.01 0.01 0.01 0.01 0.01 0.01 0.01 0.00 0.00 0.00 0.00 0.01 0.01 0.01 0.01 0.01 0.01 0.02 0.04 0.05 0.05 0.05 0.06
0.00 0.00 0.00 0.00 0.00 0.00 0.00 0.00 0.00 0.00 0.00 0.00 0.00 0.00 0.00 0.00 0.00 0.00 0.00 0.00 0.00 0.00 0.00 0.00 0.00 0.00 0.01 0.01 0.01 0.01 0.01 0.01 0.01 0.00 0.00 0.00 0.00 0.01 0.01 0.01 0.01 0.00 0.01 0.01 0.03 0.04 0.07 0.06 0.07
0.00 0.00 0.00 0.00 0.00 0.00 0.00 0.00 0.00 0.00 0.00 0.00 0.00 0.00 0.00 0.00 0.00 0.00 0.00 0.00 0.00 0.00 0.00 0.00 0.00 0.00 0.00 0.01 0.01 0.02 0.02 0.02 0.01 0.01 0.01 0.00 0.00 0.01 0.01 0.01 0.01 0.00 0.01 0.01 0.01 0.02 0.06 0.07 0.06
MSLP
1007.41 1007.73 1008.11 1008.49 1008.83 1009.07 1009.19 1009.20 1009.11 1008.97 1008.81 1008.65 1008.48 1008.28 1008.00 1007.60 1007.07 1006.41 1005.66 1004.93 1004.29 1003.82 1003.59 1003.60 1003.82 1004.18 1004.60 1004.99 1005.33 1005.59 1005.81 1006.04 1006.35 1006.76 1007.28 1007.88 1008.48 1009.02 1009.42 1009.66 1009.75 1009.73 1009.71 1009.74 1009.93 1010.30 1010.87 1011.61 1012.45
1007.41 1007.78 1008.21 1008.63 1008.99 1009.22 1009.30 1009.23 1009.04 1008.76 1008.44 1008.11 1007.80 1007.49 1007.15 1006.76 1006.28 1005.71 1005.10 1004.51 1004.00 1003.64 1003.48 1003.52 1003.75 1004.09 1004.47 1004.84 1005.14 1005.39 1005.61 1005.85 1006.18 1006.61 1007.15 1007.76 1008.37 1008.91 1009.33 1009.57 1009.66 1009.65 1009.63 1009.67 1009.87 1010.27 1010.87 1011.65 1012.53
1007.53 1007.96 1008.45 1008.90 1009.27 1009.47 1009.50 1009.34 1009.02 1008.59 1008.12 1007.66 1007.23 1006.85 1006.49 1006.12 1005.71 1005.25 1004.75 1004.26 1003.83 1003.52 1003.37 1003.41 1003.61 1003.92 1004.29 1004.65 1004.97 1005.25 1005.50 1005.77 1006.10 1006.54 1007.06 1007.65 1008.23 1008.76 1009.17 1009.42 1009.53 1009.56 1009.58 1009.67 1009.91 1010.34 1010.97 1011.78 1012.70
1007.75 1008.26 1008.79 1009.28 1009.64 1009.82 1009.78 1009.53 1009.09 1008.54 1007.96 1007.40 1006.91 1006.49 1006.15 1005.83 1005.48 1005.09 1004.64 1004.17 1003.72 1003.37 1003.15 1003.10 1003.23 1003.51 1003.87 1004.27 1004.65 1005.02 1005.35 1005.69 1006.07 1006.50 1007.00 1007.55 1008.10 1008.59 1008.99 1009.27 1009.43 1009.53 1009.62 1009.78 1010.08 1010.55 1011.21 1012.04 1012.96
1008.05 1008.62 1009.20 1009.71 1010.07 1010.21 1010.11 1009.78 1009.27 1008.63 1007.98 1007.38 1006.88 1006.49 1006.19 1005.91 1005.61 1005.23 1004.74 1004.18 1003.59 1003.06 1002.66 1002.44 1002.44 1002.65 1003.02 1003.49 1004.01 1004.53 1005.02 1005.49 1005.96 1006.44 1006.94 1007.45 1007.96 1008.44 1008.84 1009.16 1009.40 1009.59 1009.78 1010.03 1010.40 1010.92 1011.60 1012.42 1013.33
1008.36 1008.98 1009.59 1010.11 1010.46 1010.58 1010.45 1010.07 1009.50 1008.84 1008.18 1007.59 1007.14 1006.82 1006.58 1006.34 1006.04 1005.58 1004.96 1004.18 1003.32 1002.47 1001.76 1001.27 1001.08 1001.20 1001.59 1002.18 1002.89 1003.65 1004.39 1005.08 1005.70 1006.28 1006.82 1007.33 1007.83 1008.30 1008.73 1009.11 1009.44 1009.74 1010.06 1010.42 1010.86 1011.42 1012.11 1012.90 1013.76
1008.64 1009.28 1009.90 1010.42 1010.76 1010.85 1010.70 1010.31 1009.75 1009.11 1008.49 1007.98 1007.62 1007.38 1007.20 1006.99 1006.63 1006.03 1005.16 1004.06 1002.81 1001.54 1000.43 999.60 999.17 999.17 999.59 1000.34 1001.30 1002.36 1003.41 1004.39 1005.24 1005.97 1006.61 1007.18 1007.70 1008.20 1008.67 1009.13 1009.58 1010.01 1010.45 1010.92 1011.44 1012.03 1012.70 1013.43 1014.22
1008.84 1009.47 1010.07 1010.57 1010.89 1010.98 1010.83 1010.46 1009.94 1009.37 1008.85 1008.45 1008.19 1008.05 1007.92 1007.70 1007.24 1006.45 1005.28 1003.79 1002.09 1000.34 998.78 997.57 996.89 996.78 997.22 998.14 999.38 1000.78 1002.19 1003.49 1004.62 1005.56 1006.34 1006.99 1007.57 1008.12 1008.67 1009.23 1009.79 1010.36 1010.93 1011.50 1012.08 1012.68 1013.32 1013.99 1014.69
1008.93 1009.52 1010.09 1010.55 1010.86 1010.95 1010.82 1010.50 1010.05 1009.58 1009.17 1008.89 1008.75 1008.69 1008.61 1008.36 1007.78 1006.77 1005.29 1003.41 1001.26 999.06 997.06 995.49 994.57 994.35 994.83 995.91 997.42 999.15 1000.91 1002.55 1003.96 1005.12 1006.05 1006.82 1007.48 1008.11 1008.74 1009.40 1010.09 1010.78 1011.47 1012.13 1012.77 1013.38 1013.97 1014.56 1015.15
1008.95 1009.47 1009.98 1010.40 1010.68 1010.78 1010.69 1010.43 1010.08 1009.71 1009.42 1009.26 1009.22 1009.23 1009.17 1008.88 1008.19 1006.99 1005.24 1003.03 1000.52 997.95 995.60 993.75 992.63 992.34 992.85 994.06 995.79 997.79 999.84 1001.76 1003.41 1004.77 1005.85 1006.72 1007.47 1008.18 1008.90 1009.66 1010.47 1011.28 1012.07 1012.80 1013.47 1014.08 1014.63 1015.13 1015.62
1008.91 1009.36 1009.79 1010.17 1010.43 1010.54 1010.49 1010.30 1010.04 1009.78 1009.60 1009.53 1009.57 1009.62 1009.58 1009.25 1008.48 1007.15 1005.24 1002.83 1000.09 997.30 994.75 992.73 991.50 991.16 991.69 992.99 994.85 997.03 999.26 1001.35 1003.16 1004.65 1005.83 1006.78 1007.60 1008.38 1009.17 1010.03 1010.92 1011.83 1012.70 1013.50 1014.20 1014.79 1015.29 1015.72 1016.11
1008.89 1009.24 1009.60 1009.92 1010.16 1010.29 1010.28 1010.17 1010.00 1009.83 1009.73 1009.72 1009.80 1009.88 1009.83 1009.49 1008.70 1007.33 1005.39 1002.94 1000.17 997.34 994.76 992.72 991.47 991.11 991.66 992.97 994.87 997.08 999.36 1001.49 1003.34 1004.85 1006.07 1007.04 1007.90 1008.72 1009.58 1010.50 1011.47 1012.44 1013.37 1014.21 1014.92 1015.51 1015.96 1016.33 1016.64
1008.92 1009.18 1009.46 1009.73 1009.96 1010.10 1010.15 1010.10 1010.00 1009.90 1009.85 1009.88 1009.96 1010.03 1009.98 1009.65 1008.89 1007.60 1005.77 1003.45 1000.84 998.17 995.73 993.80 992.63 992.31 992.84 994.11 995.92 998.03 1000.20 1002.23 1003.99 1005.43 1006.59 1007.55 1008.40 1009.23 1010.11 1011.07 1012.08 1013.10 1014.06 1014.91 1015.63 1016.19 1016.61 1016.92 1017.17
1009.03 1009.21 1009.42 1009.65 1009.85 1010.02 1010.11 1010.13 1010.09 1010.03 1010.01 1010.03 1010.10 1010.15 1010.09 1009.79 1009.13 1008.00 1006.39 1004.37 1002.08 999.74 997.60 995.92 994.90 994.64 995.13 996.28 997.91 999.79 1001.72 1003.52 1005.08 1006.35 1007.39 1008.27 1009.07 1009.88 1010.77 1011.73 1012.75 1013.77 1014.73 1015.58 1016.27 1016.81 1017.20 1017.47 1017.67
1009.23 1009.34 1009.48 1009.67 1009.88 1010.06 1010.20 1010.27 1010.28 1010.26 1010.23 1010.23 1010.26 1010.28 1010.21 1009.96 1009.42 1008.52 1007.22 1005.58 1003.72 1001.82 1000.09 998.72 997.91 997.72 998.16 999.14 1000.51 1002.09 1003.69 1005.17 1006.45 1007.50 1008.37 1009.13 1009.86 1010.63 1011.49 1012.43 1013.42 1014.42 1015.34 1016.16 1016.82 1017.32 1017.68 1017.93 1018.11
1009.49 1009.53 1009.64 1009.80 1010.01 1010.22 1010.41 1010.53 1010.58 1010.58 1010.54 1010.51 1010.48 1010.45 1010.37 1010.17 1009.76 1009.10 1008.14 1006.93 1005.54 1004.12 1002.82 1001.80 1001.21 1001.10 1001.48 1002.27 1003.34 1004.57 1005.81 1006.94 1007.92 1008.73 1009.43 1010.06 1010.71 1011.43 1012.24 1013.14 1014.08 1015.02 1015.88 1016.64 1017.25 1017.71 1018.04 1018.27 1018.43
1009.78 1009.78 1009.85 1010.00 1010.22 1010.47 1010.70 1010.88 1010.97 1010.99 1010.94 1010.86 1010.78 1010.69 1010.59 1010.42 1010.14 1009.69 1009.05 1008.24 1007.30 1006.34 1005.45 1004.76 1004.38 1004.34 1004.65 1005.24 1006.03 1006.92 1007.81 1008.62 1009.32 1009.92 1010.46 1010.98 1011.56 1012.22 1012.98 1013.82 1014.69 1015.54 1016.33 1017.01 1017.55 1017.97 1018.27 1018.49 1018.65
1010.04 1010.03 1010.09 1010.25 1010.49 1010.78 1011.07 1011.29 1011.43 1011.46 1011.40 1011.28 1011.15 1011.00 1010.86 1010.71 1010.51 1010.24 1009.86 1009.37 1008.81 1008.22 1007.69 1007.28 1007.07 1007.08 1007.32 1007.74 1008.28 1008.89 1009.49 1010.04 1010.52 1010.96 1011.39 1011.84 1012.37 1012.98 1013.69 1014.46 1015.25 1016.01 1016.69 1017.28 1017.75 1018.12 1018.39 1018.60 1018.76
1010.27 1010.26 1010.34 1010.53 1010.81 1011.15 1011.48 1011.75 1011.92 1011.97 1011.91 1011.76 1011.57 1011.37 1011.18 1011.02 1010.87 1010.71 1010.51 1010.26 1009.97 1009.67 1009.39 1009.18 1009.10 1009.14 1009.32 1009.61 1009.97 1010.38 1010.77 1011.14 1011.49 1011.83 1012.20 1012.62 1013.12 1013.70 1014.35 1015.05 1015.75 1016.41 1016.99 1017.49 1017.89 1018.20 1018.44 1018.64 1018.80
1010.43 1010.46 1010.59 1010.82 1011.16 1011.54 1011.92 1012.23 1012.43 1012.49 1012.42 1012.24 1012.01 1011.76 1011.53 1011.35 1011.21 1011.09 1010.99 1010.89 1010.77 1010.65 1010.53 1010.46 1010.45 1010.51 1010.65 1010.86 1011.11 1011.39 1011.67 1011.96 1012.25 1012.56 1012.91 1013.33 1013.81 1014.37 1014.98 1015.60 1016.21 1016.77 1017.26 1017.66 1017.98 1018.25 1018.47 1018.66 1018.82
1010.55 1010.65 1010.84 1011.15 1011.53 1011.97 1012.38 1012.72 1012.93 1012.99 1012.91 1012.71 1012.44 1012.16 1011.89 1011.67 1011.52 1011.42 1011.36 1011.32 1011.28 1011.25 1011.23 1011.22 1011.26 1011.33 1011.45 1011.62 1011.83 1012.06 1012.31 1012.58 1012.87 1013.19 1013.56 1013.99 1014.47 1015.00 1015.56 1016.11 1016.64 1017.10 1017.50 1017.82 1018.09 1018.31 1018.50 1018.67 1018.84
1010.63 1010.83 1011.11 1011.49 1011.94 1012.41 1012.84 1013.18 1013.39 1013.43 1013.33 1013.11 1012.82 1012.50 1012.21 1011.98 1011.81 1011.71 1011.66 1011.64 1011.64 1011.64 1011.65 1011.68 1011.72 1011.81 1011.94 1012.11 1012.32 1012.56 1012.83 1013.13 1013.45 1013.80 1014.20 1014.63 1015.09 1015.59 1016.09 1016.57 1017.01 1017.40 1017.72 1017.98 1018.19 1018.37 1018.54 1018.70 1018.85
1010.71 1011.02 1011.40 1011.86 1012.36 1012.85 1013.28 1013.60 1013.77 1013.78 1013.65 1013.40 1013.09 1012.77 1012.48 1012.24 1012.08 1011.98 1011.94 1011.93 1011.94 1011.96 1011.98 1012.02 1012.08 1012.18 1012.33 1012.53 1012.77 1013.04 1013.35 1013.69 1014.04 1014.42 1014.82 1015.24 1015.68 1016.11 1016.55 1016.96 1017.32 1017.64 1017.90 1018.11 1018.28 1018.43 1018.57 1018.70 1018.83
1010.80 1011.21 1011.69 1012.22 1012.76 1013.25 1013.66 1013.93 1014.05 1014.01 1013.83 1013.56 1013.25 1012.93 1012.66 1012.45 1012.32 1012.26 1012.24 1012.25 1012.28 1012.30 1012.34 1012.39 1012.47 1012.59 1012.76 1012.99 1013.27 1013.59 1013.93 1014.30 1014.67 1015.05 1015.43 1015.80 1016.18 1016.55 1016.91 1017.25 1017.55 1017.81 1018.02 1018.20 1018.34 1018.45 1018.55 1018.65 1018.75
1010.91 1011.41 1011.96 1012.54 1013.09 1013.57 1013.93 1014.14 1014.19 1014.09 1013.86 1013.58 1013.26 1012.97 1012.74 1012.59 1012.52 1012.52 1012.55 1012.61 1012.67 1012.73 1012.79 1012.85 1012.96 1013.10 1013.30 1013.55 1013.85 1014.20 1014.56 1014.93 1015.29 1015.64 1015.97 1016.28 1016.58 1016.87 1017.16 1017.42 1017.66 1017.88 1018.06 1018.21 1018.32 1018.41 1018.47 1018.53 1018.58
1011.02 1011.58 1012.18 1012.78 1013.32 1013.76 1014.06 1014.20 1014.18 1014.01 1013.75 1013.44 1013.14 1012.90 1012.73 1012.66 1012.68 1012.76 1012.87 1013.00 1013.11 1013.22 1013.31 1013.40 1013.52 1013.68 1013.90 1014.16 1014.48 1014.82 1015.17 1015.52 1015.84 1016.13 1016.39 1016.63 1016.85 1017.06 1017.27 1017.47 1017.67 1017.86 1018.02 1018.14 1018.23 1018.29 1018.32 1018.32 1018.32
1011.12 1011.70 1012.31 1012.90 1013.41 1013.80 1014.03 1014.10 1014.01 1013.78 1013.49 1013.18 1012.91 1012.72 1012.64 1012.66 1012.78 1012.96 1013.16 1013.37 1013.55 1013.71 1013.84 1013.96 1014.10 1014.27 1014.49 1014.75 1015.05 1015.37 1015.69 1015.99 1016.26 1016.48 1016.67 1016.83 1016.97 1017.11 1017.27 1017.43 1017.59 1017.76 1017.90 1018.02 1018.09 1018.11 1018.10 1018.05 1017.99
1011.18 1011.75 1012.34 1012.89 1013.35 1013.68 1013.84 1013.84 1013.69 1013.43 1013.13 1012.84 1012.61 1012.48 1012.48 1012.60 1012.82 1013.09 1013.39 1013.67 1013.92 1014.13 1014.30 1014.45 1014.60 1014.77 1014.98 1015.22 1015.49 1015.78 1016.05 1016.30 1016.50 1016.66 1016.78 1016.88 1016.97 1017.06 1017.17 1017.31 1017.46 1017.61 1017.75 1017.84 1017.90 1017.90 1017.84 1017.75 1017.63
1011.22 1011.74 1012.28 1012.77 1013.16 1013.42 1013.52 1013.46 1013.27 1012.99 1012.70 1012.44 1012.26 1012.21 1012.29 1012.49 1012.79 1013.15 1013.52 1013.86 1014.17 1014.41 1014.61 1014.78 1014.94 1015.10 1015.29 1015.51 1015.74 1015.98 1016.21 1016.41 1016.57 1016.67 1016.75 1016.81 1016.86 1016.93 1017.03 1017.16 1017.30 1017.45 1017.57 1017.66 1017.69 1017.66 1017.57 1017.44 1017.28
1011.26 1011.71 1012.17 1012.57 1012.88 1013.06 1013.10 1013.00 1012.79 1012.52 1012.25 1012.03 1011.91 1011.92 1012.07 1012.34 1012.70 1013.11 1013.53 1013.92 1014.26 1014.53 1014.74 1014.92 1015.08 1015.23 1015.41 1015.60 1015.80 1016.01 1016.20 1016.36 1016.48 1016.57 1016.62 1016.66 1016.71 1016.78 1016.87 1017.00 1017.14 1017.28 1017.40 1017.47 1017.48 1017.42 1017.30 1017.13 1016.94
Thickness
5808 5811 5813 5809 5801 5794 5783 5788 5796 5794 5794 5800 5802 5799 5793 5787 5781 5772 5789 5796 5796 5796 5794 5790 5787 5787 5787 5787 5787 5787 5786 5785 5784 5783 5782 5781 5781 5780 5779 5778 5777 5776 5776 5775 5775 5774 5772 5771 5770
5815 5814 5811 5810 5798 5781 5778 5791 5792 5794 5799 5803 5802 5799 5793 5788 5792 5790 5793 5794 5796 5795 5793 5790 5786 5785 5785 5786 5786 5785 5785 5784 5783 5782 5781 5780 5780 5779 5778 5777 5776 5776 5775 5775 5774 5773 5772 5771 5770
5818 5816 5810 5808 5794 5785 5780 5793 5795 5799 5805 5803 5798 5798 5791 5785 5790 5792 5795 5796 5796 5795 5792 5788 5785 5784 5784 5784 5784 5784 5783 5783 5782 5781 5780 5779 5779 5778 5778 5776 5776 5775 5775 5774 5774 5773 5772 5771 5770
5818 5816 5815 5806 5790 5794 5795 5797 5801 5799 5801 5803 5799 5791 5790 5792 5794 5795 5797 5797 5796 5794 5792 5788 5784 5783 5783 5783 5783 5782 5782 5781 5781 5780 5780 5779 5778 5777 5777 5776 5776 5775 5774 5774 5774 5773 5772 5771 5770
5823 5818 5809 5798 5794 5800 5805 5806 5806 5800 5796 5799 5798 5787 5784 5793 5798 5798 5797 5797 5795 5794 5793 5789 5784 5783 5782 5782 5781 5781 5781 5780 5780 5779 5779 5778 5778 5777 5777 5776 5776 5775 5774 5774 5773 5773 5772 5770 5769
5822 5821 5804 5792 5793 5801 5807 5810 5808 5801 5798 5799 5797 5789 5785 5794 5795 5796 5797 5797 5797 5795 5793 5789 5784 5783 5781 5781 5780 5780 5780 5779 5779 5779 5778 5778 5777 5777 5777 5776 5776 5775 5775 5775 5774 5773 5772 5770 5769
5819 5817 5803 5800 5796 5797 5804 5812 5807 5802 5798 5799 5802 5790 5787 5792 5796 5797 5797 5796 5796 5795 5794 5792 5789 5785 5782 5781 5780 5780 5779 5779 5778 5778 5778 5777 5777 5777 5776 5776 5776 5775 5775 5774 5774 5773 5771 5770 5769
5831 5823 5810 5807 5800 5797 5810 5812 5811 5807 5800 5808 5806 5791 5785 5792 5799 5799 5797 5795 5794 5794 5793 5793 5791 5788 5787 5785 5781 5780 5779 5779 5778 5778 5777 5777 5777 5777 5776 5776 5775 5775 5774 5774 5773 5772 5771 5770 5769
5834 5820 5806 5808 5806 5805 5813 5810 5812 5816 5808 5805 5805 5802 5800 5801 5800 5796 5793 5792 5791 5792 5793 5793 5792 5790 5789 5788 5784 5782 5780 5780 5779 5779 5778 5778 5780 5780 5778 5776 5775 5775 5774 5774 5773 5772 5771 5770 5769
5832 5815 5811 5820 5822 5818 5816 5814 5813 5809 5802 5799 5800 5801 5803 5801 5797 5793 5791 5790 5790 5790 5793 5794 5793 5792 5791 5789 5786 5785 5784 5782 5781 5780 5780 5780 5779 5779 5779 5776 5775 5775 5774 5774 5773 5772 5772 5772 5773
5831 5819 5823 5828 5830 5827 5819 5816 5818 5809 5800 5801 5799 5798 5800 5798 5795 5793 5792 5792 5791 5792 5793 5794 5793 5792 5792 5790 5788 5787 5786 5784 5783 5781 5781 5780 5780 5780 5780 5778 5777 5776 5775 5776 5775 5775 5776 5775 5774
5829 5829 5831 5831 5833 5828 5822 5819 5815 5812 5808 5814 5811 5806 5802 5797 5796 5795 5793 5793 5793 5792 5793 5795 5794 5791 5790 5790 5789 5788 5787 5786 5785 5782 5781 5782 5781 5780 5780 5779 5778 5778 5777 5776 5776 5776 5775 5775 5774
5829 5829 5834 5836 5834 5831 5826 5820 5816 5812 5816 5817 5812 5806 5802 5800 5799 5799 5799 5797 5795 5793 5793 5794 5793 5791 5790 5788 5788 5789 5787 5786 5785 5782 5781 5781 5782 5781 5781 5778 5777 5779 5778 5776 5775 5775 5774 5774 5774
5833 5834 5834 5836 5834 5830 5823 5820 5818 5812 5818 5813 5808 5805 5804 5802 5801 5800 5798 5796 5795 5795 5795 5795 5794 5792 5790 5788 5787 5787 5787 5785 5784 5783 5782 5781 5781 5781 5780 5778 5777 5778 5777 5776 5776 5775 5774 5774 5773
5840 5832 5832 5834 5833 5831 5827 5814 5815 5819 5818 5811 5808 5807 5805 5804 5804 5801 5800 5798 5798 5797 5796 5795 5795 5793 5790 5789 5788 5789 5788 5787 5785 5783 5781 5780 5781 5779 5779 5778 5777 5777 5776 5775 5774 5774 5774 5773 5773
5839 5830 5822 5829 5834 5832 5823 5806 5818 5825 5819 5811 5810 5808 5805 5805 5806 5805 5805 5802 5801 5799 5797 5796 5798 5795 5792 5790 5788 5789 5789 5787 5785 5784 5782 5780 5779 5778 5778 5777 5777 5776 5776 5775 5774 5774 5773 5772 5771
5830 5821 5820 5825 5835 5833 5824 5814 5821 5827 5821 5814 5812 5811 5808 5807 5807 5808 5808 5806 5804 5801 5799 5797 5797 5796 5794 5792 5790 5789 5788 5787 5786 5784 5783 5781 5779 5778 5778 5777 5776 5775 5775 5775 5774 5773 5772 5770 5768
5818 5822 5821 5822 5833 5831 5823 5822 5826 5828 5825 5820 5817 5815 5812 5810 5809 5811 5810 5810 5807 5804 5801 5798 5797 5795 5794 5793 5791 5790 5788 5788 5787 5785 5783 5781 5780 5778 5777 5776 5774 5774 5774 5772 5771 5769 5768 5768 5767
5828 5824 5821 5825 5836 5830 5824 5824 5828 5830 5827 5824 5821 5819 5816 5815 5817 5817 5814 5812 5809 5805 5802 5799 5797 5795 5794 5793 5792 5789 5788 5788 5787 5786 5783 5782 5780 5778 5776 5776 5772 5772 5771 5769 5769 5768 5766 5766 5766
5828 5822 5823 5827 5834 5830 5826 5827 5834 5835 5831 5830 5826 5823 5822 5820 5819 5817 5816 5814 5811 5807 5804 5801 5799 5798 5796 5794 5792 5791 5790 5789 5788 5787 5783 5781 5779 5777 5777 5773 5772 5771 5769 5767 5766 5764 5764 5765 5765
5826 5825 5824 5823 5829 5834 5828 5824 5829 5834 5836 5834 5833 5831 5829 5826 5823 5820 5817 5816 5814 5810 5807 5806 5802 5800 5797 5796 5795 5792 5789 5788 5787 5784 5782 5780 5778 5776 5774 5773 5771 5769 5769 5766 5764 5763 5761 5760 5762
5821 5834 5830 5826 5822 5824 5825 5812 5827 5833 5831 5831 5833 5834 5833 5832 5830 5827 5823 5819 5818 5816 5814 5809 5805 5802 5800 5797 5796 5792 5788 5785 5784 5783 5782 5780 5777 5775 5773 5771 5770 5768 5767 5764 5763 5763 5761 5759 5759
5829 5837 5833 5829 5825 5823 5827 5818 5828 5835 5828 5832 5836 5838 5838 5837 5835 5832 5829 5825 5823 5821 5817 5813 5808 5804 5801 5799 5796 5792 5790 5788 5787 5784 5781 5779 5777 5775 5772 5770 5768 5766 5765 5764 5762 5761 5760 5760 5758
5836 5832 5829 5830 5828 5808 5818 5815 5817 5836 5834 5838 5841 5842 5841 5841 5838 5836 5834 5831 5827 5824 5821 5817 5810 5805 5802 5799 5797 5793 5790 5787 5784 5781 5779 5779 5778 5775 5772 5769 5767 5765 5763 5762 5760 5759 5759 5758 5757
5831 5820 5807 5803 5804 5806 5823 5815 5821 5841 5847 5846 5845 5845 5846 5844 5841 5837 5833 5830 5827 5825 5822 5818 5812 5806 5804 5801 5797 5794 5791 5788 5784 5782 5780 5778 5777 5774 5770 5769 5765 5763 5761 5760 5759 5758 5757 5756 5754
5826 5824 5802 5789 5796 5811 5821 5814 5832 5849 5852 5852 5850 5850 5847 5845 5843 5840 5837 5834 5831 5827 5823 5819 5813 5808 5805 5801 5797 5794 5792 5791 5788 5783 5781 5778 5776 5774 5770 5767 5764 5762 5761 5760 5758 5758 5756 5755 5753
5822 5823 5833 5816 5810 5803 5817 5825 5838 5848 5846 5847 5847 5846 5845 5846 5845 5843 5841 5838 5834 5830 5825 5822 5815 5809 5805 5802 5798 5794 5791 5789 5786 5783 5781 5779 5775 5773 5769 5767 5764 5762 5760 5758 5757 5756 5754 5753 5752
5832 5831 5821 5809 5788 5789 5806 5815 5824 5832 5836 5842 5843 5843 5844 5846 5846 5844 5842 5839 5837 5833 5828 5824 5818 5812 5807 5803 5799 5796 5791 5788 5785 5783 5779 5776 5774 5771 5768 5766 5763 5761 5759 5757 5756 5755 5753 5751 5750
5818 5818 5817 5815 5808 5795 5792 5813 5844 5838 5841 5841 5844 5845 5844 5844 5845 5844 5842 5840 5836 5833 5829 5822 5817 5812 5807 5803 5799 5795 5792 5789 5785 5782 5779 5776 5773 5770 5767 5764 5762 5760 5758 5756 5754 5753 5751 5749 5748
5825 5821 5817 5800 5796 5802 5799 5815 5850 5846 5847 5844 5844 5844 5844 5844 5845 5843 5841 5837 5833 5829 5826 5821 5817 5812 5808 5803 5798 5794 5790 5787 5784 5781 5778 5775 5772 5769 5766 5763 5761 5759 5757 5754 5752 5751 5749 5747 5745